Visalia, CA

2:47 PM PDT on October 18, 2019 (GMT -0700)
Visalia Municipal

Weather History for KVIS - August, 2019

Change the Weather History Date:

Wednesday, August 14, 2019

  Actual Average Record
Temperature  
Mean Temperature 83 °F -  
Max Temperature 102 °F 93 °F 114 °F (1933)
Min Temperature 64 °F 62 °F 52 °F (1954)
Cooling Degree Days 18    
Growing Degree Days 33 (Base 50)    
Moisture  
Dew Point 60 °F    
Average Humidity 53    
Maximum Humidity 90    
Minimum Humidity 22    
Precipitation  
Precipitation 0.00 in - - ()
Sea Level Pressure  
Sea Level Pressure 29.93 in    
Wind  
Wind Speed 4 mph (SW)    
Max Wind Speed 9 mph    
Max Gust Speed -    
Visibility 10 miles    
Events      
Averages and records for this station are not official NWS values.
T = Trace of Precipitation, MM = Missing Value Source: NWS Daily Summary

Daily Weather History Graph

Daily Weather History Graph

Search for Another Location

Airport or City:

Astronomy

Aug. 14, 2019 Rise Set
Actual Time 6:14 AM PDT 7:49 PM PDT
Civil Twilight 5:47 AM PDT 8:16 PM PDT
Nautical Twilight 5:14 AM PDT 8:49 PM PDT
Astronomical Twilight 4:39 AM PDT 9:24 PM PDT
Moon 7:44 PM PDT (8/14) 5:19 AM PDT (8/14)
Length of Visible Light 14h 29m
Length of Day
13h 34m
Full, 100% of the Moon is Illuminated
Aug 14
Full
Aug 15
Full
Aug 23
Last Quarter
Aug 30
New
Sep 5
First Quarter

Hourly Weather History & Observations

Time (PDT) Temp. Heat Index Dew Point Humidity Pressure Visibility Wind Dir Wind Speed Gust Speed Precip Events Conditions
12:56 AM 71.1 °F - 62.1 °F 73% 29.94 in 10.0 mi SW 3.5 mph - N/A   Clear
1:56 AM 69.1 °F - 62.1 °F 78% 29.93 in 10.0 mi Calm Calm - N/A   Clear
2:56 AM 68.0 °F - 61.0 °F 78% 29.93 in 10.0 mi Calm Calm - N/A   Clear
3:56 AM 64.9 °F - 61.0 °F 87% 29.94 in 10.0 mi SE 3.5 mph - N/A   Clear
4:56 AM 64.9 °F - 62.1 °F 90% 29.94 in 10.0 mi Calm Calm - N/A   Clear
5:56 AM 64.0 °F - 61.0 °F 90% 29.95 in 10.0 mi SSE 4.6 mph - N/A   Clear
6:56 AM 64.0 °F - 61.0 °F 90% 29.97 in 9.0 mi ESE 4.6 mph - N/A   Clear
7:56 AM 70.0 °F - 61.0 °F 73% 29.98 in 9.0 mi SSE 4.6 mph - N/A   Clear
8:56 AM 75.9 °F - 60.1 °F 58% 29.98 in 9.0 mi SE 5.8 mph - N/A   Clear
9:56 AM 81.0 °F 81.7 °F 61.0 °F 50% 29.99 in 9.0 mi SSW 5.8 mph - N/A   Clear
10:56 AM 84.9 °F 85.4 °F 62.1 °F 46% 29.99 in 9.0 mi SSW 4.6 mph - N/A   Clear
11:56 AM 88.0 °F 87.1 °F 59.0 °F 37% 29.98 in 10.0 mi SSW 4.6 mph - N/A   Clear
12:56 PM 91.0 °F 91.5 °F 62.1 °F 38% 29.96 in 10.0 mi SSE 4.6 mph - N/A   Clear
1:56 PM 96.1 °F 95.2 °F 57.9 °F 28% 29.94 in 8.0 mi WNW 8.1 mph - N/A   Clear
2:56 PM 99.0 °F 97.7 °F 55.9 °F 24% 29.92 in 10.0 mi WSW 6.9 mph - N/A   Clear
3:56 PM 100.9 °F 101.0 °F 59.0 °F 25% 29.90 in 10.0 mi NW 8.1 mph - N/A   Clear
4:56 PM 102.0 °F 102.2 °F 59.0 °F 24% 29.88 in 10.0 mi WNW 9.2 mph - N/A   Clear
5:56 PM 102.0 °F 101.1 °F 55.9 °F 22% 29.88 in 10.0 mi NW 8.1 mph - N/A   Clear
6:56 PM 98.1 °F 99.1 °F 62.1 °F 30% 29.88 in 10.0 mi West 5.8 mph - N/A   Clear
7:56 PM 91.0 °F 91.5 °F 62.1 °F 38% 29.89 in 10.0 mi WNW 5.8 mph - N/A   Clear
8:56 PM 86.0 °F 85.7 °F 60.1 °F 41% 29.90 in 10.0 mi West 4.6 mph - N/A   Clear
9:56 PM 84.0 °F 84.4 °F 61.0 °F 46% 29.91 in 10.0 mi West 3.5 mph - N/A   Clear
10:56 PM 82.9 °F 82.8 °F 59.0 °F 44% 29.93 in 10.0 mi NW 3.5 mph - N/A   Clear
11:56 PM 77.0 °F - 61.0 °F 58% 29.93 in 10.0 mi Calm Calm - N/A   Clear